Weather Roundup
Issued by NWS Chicago, IL

Home | Current Version | Previous Version | Graphics & Text | Print | Product List | Glossary On
Versions: 1 2 3 4 5 6 7 8 9 10 11 12 13 14 15 16 17 18 19 20 21 22 23 24 25 26 27 28 29 30 31 32 33 34 35 36 37 38 39 40 41 42 43 44 45 46 47 48 49 50
393
NZUS59 KLOT 190608
HRRLOT

CHICAGO AREA WEATHER ROUNDUP
NATIONAL WEATHER SERVICE CHICAGO/ROMEOVILLE IL
1200 AM CST THU JAN 19 2017

NOTE: "FAIR" INDICATES FEW OR NO CLOUDS BELOW 12,000 FEET WITH NO
SIGNIFICANT WEATHER AND/OR OBSTRUCTIONS TO VISIBILITY.

* THESE STATIONS ARE NOT UNDER NWS QUALITY CONTROL. THEY ALSO MAY NOT
  REPORT WEATHER SUCH AS PRECIPITATION OR FOG.

ILZ005-006-012>014-019>023-190700-
NORTHEAST ILLINOIS

CITY           SKY/WX    TMP DP  RH WIND       PRES   REMARKS
OHARE          CLOUDY    30  29  96 S5        30.03F FOG     WCI  25
6HR MIN TEMP:  30; 6HR MAX TEMP:  36;

MIDWAY         CLOUDY    33  30  88 S8        30.05F FOG     WCI  26
6HR MIN TEMP:  32; 6HR MAX TEMP:  35;

AURORA         CLOUDY    32  30  92 S6        30.05S FOG     WCI  26
6HR MIN TEMP:  31; 6HR MAX TEMP:  37;

LANSING*       CLOUDY    34  34 100 S7        30.07S FOG     WCI  28
JOLIET*        CLOUDY    32  32 100 S3        30.06S FOG
WAUKEGAN       CLOUDY    34  32  92 SW12      30.02F FOG     WCI  25
6HR MIN TEMP:  33; 6HR MAX TEMP:  34;

DUPAGE AIRPORT CLOUDY    29  26  89 S7        30.03F FOG     WCI  22
6HR MIN TEMP:  28; 6HR MAX TEMP:  36;

WHEELING       CLOUDY    31  29  92 S3        30.05S FOG
6HR MIN TEMP:  31; 6HR MAX TEMP:  36;

KANKAKEE*      CLOUDY    34  33  94 S8        30.08S WCI  28
MORRIS*        CLOUDY    31  31  96 S3        30.05F FOG
LEWIS AIRPORT* CLOUDY    32  32 100 S9        30.06S FOG     WCI  24
NORTHERLY ISL    N/A     35  32  88 S8          N/A  WCI  29
$$

WIZ051-052-058>065-066-070>072-190700-
SOUTHEAST WISCONSIN

CITY           SKY/WX    TMP DP  RH WIND       PRES   REMARKS
MILWAUKEE      CLOUDY    34  30  85 W8        30.00F FOG     WCI  27
6HR MIN TEMP:  34; 6HR MAX TEMP:  35;

KENOSHA*       CLOUDY    33  31  92 SW13      30.02F FOG     WCI  24
RACINE*        CLOUDY    33  30  88 W10       30.02F FOG     WCI  25
WAUKESHA       CLOUDY    32  32 100 SW8       30.00F FOG     WCI  25
WEST BEND      CLOUDY    32  32 100 SW9       29.98S FOG     WCI  24
$$

INZ001>003-010>013-019-020-190700-
NORTHWEST INDIANA

CITY           SKY/WX    TMP DP  RH WIND       PRES   REMARKS
GARY*          CLOUDY    37  34  87 S3        30.07S FOG
6HR MIN TEMP:  36; 6HR MAX TEMP:  39;

MICHIGAN CITY* NOT AVBL
RENSSELAER*    NOT AVBL
VALPARAISO     CLOUDY    36  34  92 S9        30.07F
$$

LMZ740>746-190700-
SOUTHERN LAKE MICHIGAN

STATION/POSITION TIME  SKY/WX   TEMP WIND        PRES    VSBY
                                AIR  DIR/SP/G
                 (UTC)          (F)  (DEG/KT/KT) (MB)    (MI)
HARRISON CRIB    0540            37  200/ 14/ 15   N/A
BURNHAM HARBOR   0600            35  190/  6/  9   N/A
CALUMET HARBOR   0542                190/  6/  8 1017.3F
BURNS HARBOR     0540            37  190/ 10/ 13 1019.0S
MICHIGAN CITY    NOT AVBL
$$

ABBREVIATIONS USED IN REMARKS
   TC - TEMPERATURE IN CELSIUS
  WCI - WIND CHILL INDEX
   HX - HEAT INDEX
  VSB - VISIBILITY
$$




USA.gov is the U.S. government's official web portal to all federal, state and local government web resources and services.